Home   Weather   Manassas   Past weeks

Flag for USA Past Weather in Manassas, Virginia, USA — Yesterday and Last 2 Weeks

Now
57 °F

Cool.


Feels Like: 56 °F
Forecast: 56 / 75 °F
Wind: 7 mph from North

Location: Manassas Municipal

Current Time: Apr 26, 2017 at 2:25:45 am

Latest Report: Apr 26, 2017 at 1:56 am


Visibility: 10 mi

Pressure: 29.76 "Hg

Humidity: 96%

Dew Point: 56 °F

Location of ManassasLocation

Past Weather in Manassas — Graph

°F

Manassas Temperature Yesterday

Maximum temperature yesterday: 59 °F (at 1:41 pm)
Minimum temperature yesterday: 52 °F (at 12:56 am)
Average temperature yesterday: 57 °F

High & Low Weather Summary for the Past Weeks

 TemperatureHumidityPressure
High87 °F (Apr 11, 4:56 pm)100% (Apr 17, 10:56 pm)30.47 "Hg (Apr 17, 10:56 pm)
Low45 °F (Apr 13, 5:56 am)24% (Apr 11, 4:56 pm)29.74 "Hg (Apr 25, 5:09 pm)
Average62 °F71%30.14 "Hg
* Reported Apr 11 12:56 am — Apr 26 12:56 am, Manassas, Weather by CustomWeather, © 2017

Note: Actual official high and low records may vary slightly from our data, if they occured in-between our weather recording intervals... More about our weather records

Advertising

Manassas Weather History for the Previous 24 Hours

Scroll right to see more
 ConditionsComfort  
Time TempWeatherWind HumidityBarometerVisibility
12:56 am
Wed, Apr 26
58 °FCool.7 mph93%29.77 "Hg10 mi
11:56 pm
Tue, Apr 25
58 °FFog.7 mph97%29.78 "Hg6 mi
10:56 pm58 °FFog.7 mph97%29.79 "Hg3 mi
9:56 pm58 °FFog.9 mph97%29.80 "Hg6 mi
8:56 pm59 °FCool.8 mph90%29.78 "Hg10 mi
7:56 pm59 °FCool.9 mph93%29.77 "Hg10 mi
6:56 pm59 °FCool.7 mph93%29.77 "Hg10 mi
6:03 pm59 °FCool.8 mph94%29.74 "Hg9 mi
5:56 pm59 °FFog.10 mph96%29.78 "Hg1 mi
5:31 pm59 °FFog.8 mph94%29.74 "Hg1 mi
5:24 pm59 °FLight rain. Fog.9 mph94%29.74 "Hg4 mi
5:09 pm59 °FLight rain. Fog.8 mph94%29.74 "Hg2 mi
3:56 pm59 °FFog.10 mph93%29.78 "Hg5 mi
2:56 pm59 °FLight rain. Cloudy.9 mph93%29.79 "Hg7 mi
1:56 pm59 °FLight rain. Fog.9 mph93%29.81 "Hg4 mi
1:41 pm59 °FLight rain. Fog.13 mph94%29.78 "Hg2 mi
12:56 pm58 °FLight rain. Cloudy.10 mph97%29.81 "Hg10 mi
11:56 am58 °FLight rain. Fog.15 mph93%29.83 "Hg4 mi
10:56 am58 °FLight rain. Fog.15 mph93%29.85 "Hg6 mi
9:56 am56 °FLight rain. Fog.13 mph97%29.87 "Hg4 mi
9:41 am55 °FLight rain. Fog.13 mph100%29.85 "Hg2 mi
8:56 am55 °FCool.12 mph96%29.90 "Hg8 mi
8:19 am55 °FLight rain. Fog.9 mph94%29.87 "Hg3 mi
8:00 am54 °FLight rain. Fog.9 mph100%29.88 "Hg2 mi
6:56 am54 °FFog.9 mph97%29.91 "Hg4 mi
5:56 am53 °FCool.9 mph96%29.91 "Hg10 mi
4:56 am53 °FCool.8 mph96%29.92 "Hg10 mi
3:56 am53 °FCool.9 mph93%29.92 "Hg10 mi
2:56 am52 °FCool.7 mph93%29.94 "Hg10 mi
Weather by CustomWeather, © 2017

See weather overviewHow to use our weather pages